Grayling, MI

6:06 PM EST on February 24, 2017 (GMT -0500)
Grayling

Weather History for KGOV - May, 2013

Change the Weather History Date:

Thursday, May 23, 2013

  Actual Average (KHTL) Record (KHTL)
Temperature  
Mean Temperature 46 °F -  
Max Temperature 53 °F 68 °F 87 °F (1936)
Min Temperature 36 °F 44 °F 23 °F (1926)
Degree Days  
Heating Degree Days 20    
Moisture  
Dew Point 43 °F    
Average Humidity 87    
Maximum Humidity 100    
Minimum Humidity 53    
Precipitation  
Precipitation 0.00 in - - ()
Sea Level Pressure  
Sea Level Pressure 29.97 in    
Wind  
Wind Speed 10 mph (North)    
Max Wind Speed 17 mph    
Max Gust Speed 26 mph    
Visibility 9 miles    
Events Rain    
Averages and records for this station are not official NWS values.
T = Trace of Precipitation, MM = Missing Value Source: NWS Daily Summary

Daily Weather History Graph

Daily Weather History Graph

Search for Another Location

Airport or City:

Trip Planner

Search our weather history database for the weather conditions in past years. The results will help you decide how hot, cold, wet, or windy it might be!

Date:

Astronomy

May. 23, 2013 Rise Set
Actual Time 6:02 AM EDT 9:09 PM EDT
Civil Twilight 5:27 AM EDT 9:44 PM EDT
Nautical Twilight 4:42 AM EDT 10:29 PM EDT
Astronomical Twilight 3:48 AM EDT 11:24 PM EDT
Moon 7:37 PM EDT (5/23) 4:51 AM EDT (5/23)
Length of Visible Light 16h 16m
Length of Day
15h 06m
Waxing Gibbous, 97% of the Moon is Illuminated
May 23
Waxing Gibbous
May 25
Full
May 31
Last Quarter
Jun 8
New
Jun 16
First Quarter

Hourly Weather History & Observations

Time (EDT) Temp. Windchill Dew Point Humidity Pressure Visibility Wind Dir Wind Speed Gust Speed Precip Events Conditions
12:15 AM 53.6 °F - 53.6 °F 100% 29.72 in 10.0 mi North 8.1 mph - N/A Rain Rain
12:35 AM 53.6 °F - 53.6 °F 100% 29.73 in 10.0 mi NNE 9.2 mph - N/A   Light Drizzle
12:54 AM 53.6 °F - 53.2 °F 99% 29.74 in 10.0 mi NNE 8.1 mph - N/A   Overcast
1:15 AM 53.6 °F - 53.2 °F 99% 29.74 in 10.0 mi NNE 9.2 mph - N/A Rain Rain
1:34 AM 53.6 °F - 53.2 °F 99% 29.74 in 10.0 mi NNE 10.4 mph - N/A Rain Light Rain
1:55 AM 53.6 °F - 53.6 °F 100% 29.74 in 10.0 mi NNE 9.2 mph - N/A   Drizzle
2:15 AM 53.6 °F - 53.6 °F 100% 29.74 in 10.0 mi NNE 9.2 mph - N/A Rain Light Rain
2:34 AM 53.6 °F - 53.6 °F 100% - 7.0 mi NNE 6.9 mph - N/A   Drizzle
2:55 AM 53.6 °F - 53.6 °F 100% 29.74 in 10.0 mi North 5.8 mph - N/A   Drizzle
3:15 AM 53.6 °F - 53.6 °F 100% 29.75 in 7.0 mi North 6.9 mph - N/A   Heavy Drizzle
3:34 AM 53.6 °F - 53.6 °F 100% 29.75 in 7.0 mi North 6.9 mph - N/A   Drizzle
3:55 AM 53.6 °F - 53.6 °F 100% 29.75 in 5.0 mi NNE 5.8 mph - N/A   Heavy Drizzle
4:15 AM 53.6 °F - 53.6 °F 100% 29.76 in 5.0 mi NNE 12.7 mph - N/A Rain Rain
4:34 AM 53.6 °F - 53.6 °F 100% 29.77 in 7.0 mi NNE 9.2 mph - N/A Rain Light Rain
4:55 AM 53.6 °F - 53.6 °F 100% 29.77 in 10.0 mi NNE 11.5 mph - N/A Rain Rain
5:15 AM 49.1 °F - 48.2 °F 97% 29.79 in 5.0 mi NNE 17.3 mph 26.5 mph N/A Rain Rain
5:34 AM 48.4 °F - 47.5 °F 97% 29.80 in 7.0 mi NNE 11.5 mph 18.4 mph N/A Rain Rain
5:55 AM 48.4 °F - 48.0 °F 99% 29.81 in 5.0 mi North 12.7 mph 19.6 mph N/A Rain Rain
6:15 AM 48.4 °F - 47.5 °F 97% 29.82 in 5.0 mi NNE 16.1 mph 21.9 mph N/A Rain Rain
6:34 AM 48.4 °F - 48.2 °F 99% 29.83 in 5.0 mi NNE 11.5 mph - N/A   Drizzle
6:55 AM 48.4 °F - 48.4 °F 100% 29.84 in 4.0 mi NNE 11.5 mph - N/A Rain Light Rain
7:15 AM 48.4 °F - 48.2 °F 99% 29.85 in 5.0 mi NNE 12.7 mph 16.1 mph N/A Rain Rain
7:34 AM 48.4 °F - 48.2 °F 99% 29.86 in 7.0 mi NNE 10.4 mph - N/A Rain Rain
7:55 AM 45.9 °F 40.0 °F 45.1 °F 97% 29.87 in 10.0 mi NNE 12.7 mph 16.1 mph N/A Rain Light Rain
8:15 AM 45.9 °F 41.2 °F 45.1 °F 97% 29.88 in 10.0 mi NNE 9.2 mph - N/A Rain Light Rain
8:34 AM 45.9 °F 41.2 °F 45.5 °F 99% 29.89 in 10.0 mi North 9.2 mph - N/A Rain Rain
8:55 AM 45.9 °F 40.8 °F 45.0 °F 97% 29.91 in 10.0 mi North 10.4 mph 20.7 mph N/A Rain Light Rain
9:15 AM 45.9 °F 40.0 °F 45.0 °F 97% 29.92 in 10.0 mi North 12.7 mph 17.3 mph N/A   Light Drizzle
9:35 AM 43.9 °F 37.5 °F 43.0 °F 97% 29.94 in 10.0 mi North 12.7 mph 19.6 mph N/A Rain Light Rain
9:55 AM 43.3 °F 37.2 °F 42.3 °F 96% 29.95 in 10.0 mi North 11.5 mph 19.6 mph N/A Rain Light Rain
10:15 AM 43.3 °F 36.8 °F 42.3 °F 96% 29.96 in 10.0 mi North 12.7 mph 16.1 mph N/A Rain Light Rain
10:35 AM 43.9 °F 37.9 °F 42.6 °F 95% 29.96 in 10.0 mi North 11.5 mph - N/A Rain Light Rain
10:55 AM 45.7 °F 39.8 °F 44.8 °F 97% 29.97 in 10.0 mi North 12.7 mph - N/A Rain Light Rain
11:15 AM 45.9 °F 40.4 °F 44.6 °F 95% 29.99 in 10.0 mi North 11.5 mph 16.1 mph N/A Rain Light Rain
11:35 AM 45.5 °F 40.8 °F 44.2 °F 95% 29.99 in 10.0 mi North 9.2 mph - N/A Rain Light Rain
11:55 AM 45.5 °F 39.6 °F 44.2 °F 95% 30.00 in 10.0 mi North 12.7 mph - N/A Rain Light Rain
12:14 PM 44.6 °F 38.8 °F 43.2 °F 95% 30.01 in 10.0 mi North 11.5 mph - N/A Rain Light Rain
12:35 PM 45.0 °F 38.2 °F 43.7 °F 95% 30.01 in 10.0 mi North 15.0 mph 18.4 mph N/A Rain Rain
12:55 PM 43.0 °F 36.4 °F 42.1 °F 97% 30.02 in 10.0 mi North 12.7 mph - N/A   Overcast
1:14 PM 42.4 °F 35.3 °F 41.0 °F 95% 30.03 in 10.0 mi NNE 13.8 mph 21.9 mph N/A   Overcast
1:35 PM 44.2 °F 38.8 °F 43.0 °F 95% 30.03 in 10.0 mi NNE 10.4 mph - N/A   Overcast
1:55 PM 43.5 °F 36.7 °F 41.0 °F 91% 30.04 in 10.0 mi NNW 13.8 mph - N/A   Overcast
2:14 PM 43.5 °F 37.1 °F 41.0 °F 91% 30.04 in 10.0 mi North 12.7 mph - N/A   Overcast
2:35 PM 42.4 °F 34.7 °F 40.6 °F 93% 30.05 in 10.0 mi NNW 16.1 mph 20.7 mph N/A   Overcast
2:55 PM 43.3 °F 36.8 °F 40.3 °F 89% 30.05 in 10.0 mi North 12.7 mph - N/A   Overcast
3:14 PM 43.5 °F 37.5 °F 39.4 °F 85% 30.06 in 10.0 mi NNW 11.5 mph 20.7 mph N/A   Overcast
3:35 PM 45.5 °F 39.9 °F 40.1 °F 81% 30.07 in 10.0 mi North 11.5 mph 20.7 mph N/A   Overcast
3:55 PM 46.2 °F 41.2 °F 40.3 °F 80% 30.06 in 10.0 mi NNW 10.4 mph - N/A   Overcast
4:14 PM 48.4 °F - 40.1 °F 73% 30.07 in 10.0 mi NNW 15.0 mph - N/A   Overcast
4:35 PM 49.6 °F - 38.1 °F 65% 30.07 in 10.0 mi NNW 15.0 mph 20.7 mph N/A   Overcast
4:55 PM 50.7 °F - 39.4 °F 65% 30.07 in 10.0 mi WNW 10.4 mph 18.4 mph N/A   Overcast
5:14 PM 50.9 °F - 39.0 °F 64% 30.08 in 10.0 mi NNW 12.7 mph 17.3 mph N/A   Overcast
5:35 PM 50.9 °F - 37.8 °F 61% 30.08 in 10.0 mi NNW 8.1 mph 17.3 mph N/A   Overcast
5:55 PM 52.2 °F - 37.9 °F 58% 30.08 in 10.0 mi NNW 15.0 mph 20.7 mph N/A   Mostly Cloudy
6:14 PM 53.4 °F - 37.6 °F 55% 30.09 in 10.0 mi NNW 11.5 mph 21.9 mph N/A   Scattered Clouds
6:35 PM 51.3 °F - 34.7 °F 53% 30.09 in 10.0 mi NNW 13.8 mph 20.7 mph N/A   Scattered Clouds
6:54 PM 51.6 °F - 37.2 °F 58% 30.10 in 10.0 mi WNW 11.5 mph 17.3 mph N/A   Clear
7:15 PM 50.0 °F - 36.1 °F 59% 30.11 in 10.0 mi NW 10.4 mph 18.4 mph N/A   Scattered Clouds
7:35 PM 48.4 °F - 34.9 °F 60% 30.13 in 10.0 mi NW 10.4 mph 18.4 mph N/A   Scattered Clouds
7:55 PM 48.4 °F - 35.4 °F 61% 30.14 in 10.0 mi NW 11.5 mph 24.2 mph N/A   Scattered Clouds
8:15 PM 48.4 °F - 36.5 °F 64% 30.14 in 10.0 mi NW 13.8 mph 23.0 mph N/A   Clear
8:35 PM 45.9 °F 40.0 °F 34.7 °F 65% 30.15 in 10.0 mi NW 12.7 mph 19.6 mph N/A   Clear
8:55 PM 43.3 °F 37.7 °F 32.9 °F 67% 30.16 in 10.0 mi NW 10.4 mph - N/A   Clear
9:15 PM 41.5 °F 35.0 °F 32.5 °F 70% 30.16 in 10.0 mi NW 11.5 mph - N/A   Clear
9:35 PM 41.0 °F 34.7 °F 32.2 °F 71% 30.17 in 10.0 mi NW 10.4 mph 16.1 mph N/A   Clear
9:55 PM 40.6 °F 33.0 °F 32.4 °F 72% 30.18 in 10.0 mi NW 13.8 mph 18.4 mph N/A   Clear
10:15 PM 39.6 °F 32.5 °F 32.0 °F 74% 30.19 in 10.0 mi NW 11.5 mph 17.3 mph N/A   Clear
10:34 PM 39.4 °F 33.8 °F 32.4 °F 76% 30.20 in 10.0 mi NW 8.1 mph - N/A   Clear
10:55 PM 38.3 °F 31.4 °F 32.0 °F 78% 30.20 in 10.0 mi NW 10.4 mph - N/A   Clear
11:15 PM 38.3 °F 31.9 °F 32.4 °F 79% 30.21 in 10.0 mi NW 9.2 mph - N/A   Clear
11:34 PM 38.3 °F 33.2 °F 33.3 °F 82% 30.21 in 10.0 mi NNW 6.9 mph - N/A   Clear
11:55 PM 36.9 °F 31.4 °F 32.7 °F 85% 30.21 in 10.0 mi NW 6.9 mph - N/A   Clear